N3WKE Weather Reports


Display with metric or nautical units.
time (UTC)temp
F
wind
direction
speed
MPH
gust
MPH
rain 1hr
in
rain 24hr
in
rain mn
in
humidity
%
barometer
mb
20260507060037 57 29 0.0 0.0 0.03 0.23 0.12 90 1009.2
20260507054504 57 10 0.0 0.0 0.12 0.23 0.12 89 1009.3
20260507053027 57 334 0.0 2.0 0.11 0.22 0.11 88 1009.7
20260507051556 58 326 0.0 3.0 0.11 0.22 0.11 87 1009.4
20260507050039 59 360 0.0 4.0 0.09 0.20 0.09 83 1009.9
20260507044504 61 13 0.0 5.0 0.00 0.11 0.00 78 1009.2
20260507043041 62 18 0.0 6.0 0.00 0.11 0.00 76 1009.2
20260507041550 63 346 0.0 5.0 0.00 0.11 0.00 76 1008.8
20260507040022 64 10 0.0 3.0 0.00 0.11 0.00 78 1008.3
20260507034556 64 25 0.0 1.0 0.00 0.11 0.11 79 1008.2
20260507033032 64 360 0.0 0.0 0.00 0.11 0.11 79 1008.7
20260507031501 65 336 0.0 0.0 0.00 0.11 0.11 77 1008.5
20260507030040 65 329 0.0 1.0 0.00 0.11 0.11 75 1008.1
20260507024601 66 326 1.0 9.0 0.00 0.11 0.11 74 1008.1
20260507023041 66 22 0.0 10.0 0.00 0.11 0.11 74 1007.6
20260507021547 67 311 0.0 6.0 0.00 0.11 0.11 77 1007.9
20260507020027 68 345 0.0 10.0 0.00 0.11 0.11 81 1007.8
20260507014605 68 30 0.0 1.0 0.00 0.11 0.11 81 1007.8
20260507013029 68 267 0.0 0.0 0.00 0.11 0.11 82 1007.9
20260507011603 68 261 0.0 0.0 0.00 0.11 0.11 81 1007.8
20260507010032 69 260 0.0 0.0 0.00 0.11 0.11 81 1007.7
20260507004600 69 265 0.0 0.0 0.00 0.11 0.11 80 1007.6
20260507003030 69 248 0.0 0.0 0.00 0.11 0.11 80 1007.5
20260507001558 69 237 0.0 0.0 0.00 0.11 0.11 80 1007.2
20260507000036 69 231 0.0 0.0 0.00 0.11 0.11 80 1007.0
20260506234551 69 250 0.0 0.0 0.00 0.11 0.11 79 1006.9
20260506233035 69 238 0.0 1.0 0.00 0.11 0.11 79 1006.8
20260506231552 70 249 0.0 4.0 0.00 0.11 0.11 78 1006.7
20260506230024 70 246 0.0 3.0 0.00 0.11 0.11 77 1006.7
20260506224551 70 240 0.0 0.0 0.00 0.11 0.11 78 1006.5
20260506223042 70 250 0.0 1.0 0.00 0.11 0.11 78 1006.7
20260506221557 70 260 0.0 0.0 0.00 0.11 0.11 77 1006.7
20260506220032 71 229 0.0 2.0 0.00 0.11 0.11 76 1006.6
20260506214600 71 273 0.0 3.0 0.00 0.11 0.11 75 1006.5
20260506213049 71 214 0.0 4.0 0.00 0.11 0.11 76 1006.4
20260506211603 71 251 0.0 9.0 0.00 0.11 0.11 77 1006.2
20260506210033 70 236 0.0 8.0 0.00 0.11 0.11 77 1006.2
20260506204557 71 265 0.0 3.0 0.00 0.11 0.11 76 1006.1
20260506203047 71 239 0.0 13.0 0.00 0.11 0.11 76 1006.3
20260506201604 72 234 0.0 6.0 0.00 0.11 0.11 74 1006.1
20260506200034 71 219 0.0 11.0 0.00 0.11 0.11 76 1006.1
20260506194500 70 238 0.0 15.0 0.00 0.11 0.11 76 1006.2
20260506193038 70 219 1.0 11.0 0.00 0.11 0.11 76 1006.2
20260506191549 70 287 0.0 10.0 0.00 0.11 0.11 77 1006.4
20260506190041 69 254 1.0 15.0 0.00 0.11 0.11 79 1006.5
20260506184600 68 225 0.0 16.0 0.00 0.11 0.11 80 1006.9
20260506183057 67 211 4.0 15.0 0.00 0.11 0.11 80 1006.9
20260506181554 67 262 5.0 17.0 0.00 0.11 0.11 80 1007.0
20260506180028 67 244 0.0 11.0 0.00 0.11 0.11 81 1007.2
20260506174600 66 229 1.0 12.0 0.00 0.11 0.11 82 1007.2
20260506173029 66 228 2.0 23.0 0.00 0.11 0.11 83 1007.2
20260506171501 65 268 1.0 14.0 0.00 0.11 0.11 85 1007.2
20260506170059 64 218 0.0 8.0 0.00 0.11 0.11 87 1007.2
20260506164547 64 254 0.0 10.0 0.00 0.11 0.11 88 1007.5
20260506163053 63 223 1.0 19.0 0.00 0.11 0.11 89 1007.5
20260506161548 63 244 0.0 15.0 0.00 0.11 0.11 89 1007.7
20260506160023 62 233 0.0 18.0 0.01 0.11 0.11 90 1007.7
20260506154552 62 252 1.0 12.0 0.02 0.11 0.11 91 1008.0
20260506153027 62 232 1.0 13.0 0.04 0.11 0.11 91 1007.6
20260506151602 62 258 1.0 11.0 0.05 0.11 0.11 91 1008.2
20260506150034 61 232 0.0 10.0 0.06 0.10 0.10 91 1008.6
20260506144558 62 221 0.0 5.0 0.06 0.09 0.09 90 1008.6
20260506143035 62 231 0.0 4.0 0.05 0.07 0.07 89 1008.4
20260506141545 62 233 0.0 6.0 0.06 0.06 0.06 89 1008.4
20260506140046 62 234 0.0 2.0 0.04 0.04 0.04 88 1008.6
20260506134550 63 221 0.0 2.0 0.02 0.02 0.02 86 1008.9
20260506133043 63 225 1.0 10.0 0.02 0.02 0.02 84 1008.9
20260506131554 64 251 0.0 9.0 0.00 0.00 0.00 82 1008.6
20260506130030 65 227 1.0 11.0 0.00 0.00 0.00 80 1008.4
20260506124556 65 222 0.0 10.0 0.00 0.00 0.00 79 1008.2
20260506123034 65 223 0.0 10.0 0.00 0.00 0.00 78 1008.5
20260506121548 65 251 0.0 9.0 0.00 0.00 0.00 78 1008.7
20260506120042 66 219 0.0 10.0 0.00 0.00 0.00 75 1008.7
20260506114551 66 240 0.0 14.0 0.00 0.00 0.00 74 1008.5
20260506113038 66 255 0.0 14.0 0.00 0.00 0.00 74 1008.3
20260506111549 66 252 0.0 9.0 0.00 0.00 0.00 74 1008.1
20260506110031 66 236 0.0 12.0 0.00 0.00 0.00 74 1008.0
20260506104559 66 209 0.0 7.0 0.00 0.00 0.00 74 1007.9
20260506103029 66 240 0.0 7.0 0.00 0.00 0.00 74 1007.8
20260506101557 66 232 0.0 10.0 0.00 0.00 0.00 73 1007.8
20260506100035 66 238 0.0 11.0 0.00 0.00 0.00 72 1007.7
20260506094544 67 242 0.0 14.0 0.00 0.00 0.00 72 1007.8
20260506093036 67 234 1.0 11.0 0.00 0.00 0.00 72 1007.7
20260506091547 67 249 0.0 6.0 0.00 0.00 0.00 71 1007.8
20260506090048 68 215 0.0 8.0 0.00 0.00 0.00 70 1007.9
20260506084601 68 225 0.0 16.0 0.00 0.00 0.00 69 1008.0
20260506083043 69 245 1.0 10.0 0.00 0.00 0.00 68 1008.0
20260506081552 69 241 1.0 8.0 0.00 0.00 0.00 68 1007.9
20260506073030 70 211 0.0 13.0 0.00 0.00 0.00 64 1007.9
20260506071543 70 232 0.0 5.0 0.00 0.00 0.00 63 1008.1
20260506061501 72 248 1.0 16.0 0.00 0.00 0.00 59 1008.4